Regional Weather Roundup
Issued by NWS Huntsville, AL

Home | Current Version | Previous Version | Text Only | Print | Product List | Glossary On
Versions: 1 2 3 4 5 6 7 8 9 10 11 12 13 14 15 16 17 18 19 20 21 22 23 24 25 26 27 28 29 30 31 32 33 34 35 36 37 38 39 40 41 42 43 44 45 46 47 48 49 50
000
ASUS44 KHUN 020610
RWRHUN

WEATHER ROUNDUP FOR THE TENNESSEE VALLEY
NATIONAL WEATHER SERVICE HUNTSVILLE AL
100 AM CDT THU OCT 02 2014

ALZ001>004-020700-
NORTHWEST ALABAMA

CITY           SKY/WX    TMP DP  RH WIND       PRES   REMARKS
COURTLAND HCN    N/A     64 N/A N/A CALM        N/A
RUSSELLVILLE     N/A     64 N/A N/A MISG        N/A
SHOALS AIRPORT CLEAR     65  57  75 SE3       29.98S
6HR MIN TEMP:  63; 6HR MAX TEMP:  75;

SHOALS TVA RES   N/A     63 N/A N/A MISG        N/A
$$

ALZ005>007-016-020700-
NORTH CENTRAL ALABAMA

CITY           SKY/WX    TMP DP  RH WIND       PRES   REMARKS
CULLMAN AG STN   N/A     61 N/A N/A CALM        N/A
DECATUR AP     CLEAR     64  58  80 E5        29.99S
6HR MIN TEMP:  60; 6HR MAX TEMP:  76;

HUNTSVILLE AP  CLEAR     67  60  78 E3        29.99S
6HR MIN TEMP:  66; 6HR MAX TEMP:  78;

HUN NWS/UAH      N/A     68  58  68 E1          N/A
MERIDIANVILLE  CLEAR     61  55  82 CALM      30.00S
VINEMONT AP    FAIR      67  57  71 CALM      30.02S
$$

ALZ008>010-020700-
NORTHEAST ALABAMA

CITY           SKY/WX    TMP DP  RH WIND       PRES   REMARKS
ALBERTVILLE    CLEAR     68  63  83 SE5       30.01S
FORT PAYNE     CLEAR     59  55  88 CALM      30.02R
SCOTTSBORO AP    N/A     63  61  94 CALM      30.02S
SCOTTSBORO HCN   N/A     59 N/A N/A MISG        N/A
VALLEY HEAD      N/A     61 N/A N/A MISG        N/A
$$

TNZ076-096-097-020700-
SOUTHEASTERN MIDDLE TENNESSEE

CITY           SKY/WX    TMP DP  RH WIND       PRES   REMARKS
FAYETTEVILLE   CLEAR     63  55  77 S6        30.00S
TULLAHOMA        N/A     61  57  88 CALM      30.02S
WINCHESTER     CLEAR     64  59  82 SE3       30.02S
$$

...SURROUNDING SITES...

CITY           SKY/WX    TMP DP  RH WIND       PRES   REMARKS
ATLANTA        PTCLDY    69  62  78 SW3       30.04S
ANNISTON       CLEAR     64  61  90 CALM      30.02S
BIRMINGHAM     CLEAR     72  61  68 CALM      30.02S
CHATTANOOGA    CLEAR     65  61  87 CALM      30.03S
CORINTH          N/A     66  61  82 SE3       29.94R
DALTON         CLEAR     59  59 100 CALM      30.04R FOG
GADSDEN        CLEAR     63  55  77 CALM      30.02R
GOLDEN TRNGL   CLEAR     72  61  68 S8        29.95S
HALEYVILLE     FAIR      68  60  75 CALM      30.02R
JACKSON TN     CLEAR     70  60  70 S3        29.93S
LEWISBURG      FAIR      59  57  92 CALM      29.98S
MEMPHIS        CLEAR     75  62  64 SE6       29.90F
MURFREESBORO   FAIR      64  58  81 CALM      29.98S
NASHVILLE      CLEAR     66  58  75 S5        29.98R
OXFORD MS      FAIR      68  61  77 SE7       29.94F
ROME           CLEAR     61  59  93 CALM      30.02S
TUPELO         CLEAR     69  62  78 SW3       29.94S
TUSCALOOSA     CLEAR     67  64  90 CALM      29.98S
$$

...GULF COAST WEATHER...

CITY           SKY/WX    TMP DP  RH WIND       PRES   REMARKS
GULFPORT       PTCLDY    79  74  84 SE7       29.94S
PASCAGOULA     PTCLDY    70  69  97 CALM      29.96S
GULF SHORES    PTCLDY    74  72  94 CALM      29.97S
PENSACOLA      PTCLDY    72  71  97 CALM      29.97S
DESTIN         MOCLDY    75  72  90 CALM      29.98F
PANAMA CITY    CLOUDY    73  73  99 E1        30.00S
APPALACHICOLA  CLEAR     73  69  87 NE3       29.99F
$$




USA.gov is the U.S. government's official web portal to all federal, state and local government web resources and services.